Find Starlink 31696

NORAD ID: 59435 Int'l Des: 2024-065 Owner: SPXS Country: US Constellation: starlink operational
LEOCIRCULAR

Live Position

Loading 3D Globe...

About Starlink 31696

Description loading...

Upcoming Passes

Passes for default location (London). Set your location on the main map for personalized predictions.

Altitude History

Loading altitude history...

Two-Line Element Set

1 59435U 24065Q 26126.90262665 .00002709 00000-0 10357-3 0 9993
2 59435 53.1591 11.1686 0001395 48.9382 311.1740 15.30193355117840
Epoch: May 6, 2026 • Age: 6 hours

Current Status

Altitude 490.1 km
Velocity 7.62 km/s
Sub-Earth Point -43.46°S, 44.94°E
Launch Date Apr 7, 2024
Age 2 years
Type internet

Technical Details

Classification Payload
Mass 730.00 kg
Dry Mass 700.00 kg
Total Mass 730.00 kg
Length 0.30 m
Diameter 4.10 m
Span 29.00 m
Shape Box + pan
Manufacturer SPXS
Bus Type Starlink V2M
Phase Status In Orbit
Owner/State SPXS/US

Most Searched